Time,TemperatureF,DewpointF,PressureIn,WindDirection,WindDirectionDegrees,WindSpeedMPH,WindSpeedGustMPH,Humidity,HourlyPrecipIn,Conditions,Clouds,dailyrainin,SoftwareType,DateUTC
2013-08-18 19:00:00,80.4,62.8,29.77,North,9,4.0,4.0,55,0.00,,,0.00,Wunderground v.1.13,2013-08-19 02:00:00,
2013-08-18 19:05:00,79.7,62.6,29.78,NNE,13,3.0,3.0,56,0.00,,,0.00,Wunderground v.1.13,2013-08-19 02:05:00,
2013-08-18 19:15:00,79.0,63.0,29.78,NNE,26,1.0,9.0,58,0.00,,,0.00,Wunderground v.1.13,2013-08-19 02:15:00,
2013-08-18 19:20:00,78.7,62.7,29.78,NNE,13,1.0,9.0,58,0.00,,,0.00,Wunderground v.1.13,2013-08-19 02:20:00,
2013-08-18 19:25:00,78.7,62.7,29.78,NNE,14,1.0,9.0,58,0.00,,,0.00,Wunderground v.1.13,2013-08-19 02:25:00,
2013-08-18 19:30:00,78.4,62.4,29.78,NNE,22,1.0,9.0,58,0.00,,,0.00,Wunderground v.1.13,2013-08-19 02:30:00,
2013-08-18 19:35:00,78.4,62.4,29.78,NNE,22,1.0,1.0,58,0.00,,,0.00,Wunderground v.1.13,2013-08-19 02:35:00,
2013-08-18 19:40:00,78.3,62.3,29.78,NNE,22,0.0,9.0,58,0.00,,,0.00,Wunderground v.1.13,2013-08-19 02:40:00,
2013-08-18 19:45:00,78.2,62.2,29.78,NNE,22,0.0,9.0,58,0.00,,,0.00,Wunderground v.1.13,2013-08-19 02:45:00,
2013-08-18 19:50:00,78.2,62.2,29.79,NNE,22,0.0,9.0,58,0.00,,,0.00,Wunderground v.1.13,2013-08-19 02:50:00,
2013-08-18 20:00:00,78.0,62.0,29.79,NNE,22,0.0,9.0,58,0.00,,,0.00,Wunderground v.1.13,2013-08-19 03:00:00,
2013-08-18 20:05:00,77.8,62.3,29.79,NNE,22,0.0,1.0,59,0.00,,,0.00,Wunderground v.1.13,2013-08-19 03:05:00,
2013-08-18 20:15:00,77.5,62.0,29.79,NNE,22,0.0,1.0,59,0.00,,,0.00,Wunderground v.1.13,2013-08-19 03:15:00,
2013-08-18 20:25:00,77.0,62.0,29.79,NNE,22,0.0,1.0,60,0.00,,,0.00,Wunderground v.1.13,2013-08-19 03:25:00,
2013-08-18 20:30:00,76.7,61.8,29.80,NNE,22,0.0,1.0,60,0.00,,,0.00,Wunderground v.1.13,2013-08-19 03:30:00,
2013-08-18 20:35:00,76.5,62.0,29.80,NNE,22,0.0,1.0,61,0.00,,,0.00,Wunderground v.1.13,2013-08-19 03:35:00,
2013-08-18 20:40:00,76.3,62.3,29.80,NNE,22,0.0,1.0,62,0.00,,,0.00,Wunderground v.1.13,2013-08-19 03:40:00,
2013-08-18 20:45:00,76.0,62.0,29.80,NNE,22,0.0,1.0,62,0.00,,,0.00,Wunderground v.1.13,2013-08-19 03:45:00,
2013-08-18 20:50:00,75.7,61.8,29.80,NNE,22,0.0,1.0,62,0.00,,,0.00,Wunderground v.1.13,2013-08-19 03:50:00,
2013-08-18 21:00:00,75.3,61.8,29.80,NNE,22,0.0,1.0,63,0.00,,,0.00,Wunderground v.1.13,2013-08-19 04:00:00,
2013-08-18 21:05:00,75.0,62.0,29.80,NNE,22,0.0,0.0,64,0.00,,,0.00,Wunderground v.1.13,2013-08-19 04:05:00,
2013-08-18 21:15:00,74.5,62.0,29.81,NNE,22,0.0,0.0,65,0.00,,,0.00,Wunderground v.1.13,2013-08-19 04:15:00,